Date String (YYYY-MM-DD hh:mm:ss) UTC,Instrument flags,absolute air pressure of the measurement (hPa),sample flow rate (lpm),inlet stack bypass flow (lpm),air temperature of the measurement (°C),ambient temperature measured by the external sensor (°C),aerosol sample conditioner tube jacket temperature (°C),OPC LED temperature (°C),internal box temperature (°C),relative humidity of the measurement (%),span deviation,mass concentration of particles derived from Lorenz-Mie calculation of OPC scattering (μg/m³),mass concentration of particles derived from Lorenz-Mie calculation of OPC scattering (μg/m³),mass concentration of particles derived from Lorenz-Mie calculation of OPC scattering (μg/m³)
DateTimeUTC,F1_M11,P_M11,Q1_M11,Q2_M11,T1_M11,T2_M11,T3_M11,T4_M11,T5_M11,U1_M11,ZSPAN_M11,X0_M11,X2_M11,X1_M11
2023-08-17 13:00:00,SystemResetWarning,0836.4,5.00,000.00,028.2,026.0,000.0,036.8,029.8,31.6,0002.1,0025.82,0018.38,0017.02
2023-08-17 13:01:00,SystemResetWarning,0836.5,4.99,000.00,028.2,026.3,000.0,036.8,029.9,31.5,0002.2,0025.56,0018.33,0017.02
2023-08-17 13:02:00,SystemResetWarning,0836.5,4.99,000.00,028.2,026.5,000.0,036.8,029.9,31.4,0002.3,0025.23,0018.27,0016.98
2023-08-17 13:03:00,SystemResetWarning,0836.5,5.01,000.00,028.3,026.7,000.0,036.8,030.0,31.3,0001.7,0025.10,0018.24,0016.95
2023-08-17 13:04:00,SystemResetWarning,0836.5,5.01,000.00,028.3,026.9,000.0,036.8,030.0,31.2,0001.5,0025.22,0018.22,0016.94
2023-08-17 13:05:00,SystemResetWarning,0836.5,4.99,000.00,028.3,027.0,000.0,036.8,030.1,31.2,0001.5,0025.92,0018.29,0016.98
2023-08-17 13:06:00,SystemResetWarning,0836.5,5.00,000.00,028.4,027.1,000.0,036.8,030.1,31.1,0001.6,0026.67,0018.33,0017.02
2023-08-17 13:07:00,SystemResetWarning,0836.5,5.02,000.00,028.4,027.2,000.0,036.9,030.1,31.1,0001.5,0026.67,0018.37,0017.05
2023-08-17 13:08:00,SystemResetWarning,0836.5,5.01,000.00,028.4,027.3,000.0,036.9,030.2,30.9,0001.5,0026.94,0018.36,0017.05
2023-08-17 13:09:00,SystemResetWarning,0836.5,5.00,000.00,028.5,027.3,000.0,036.9,030.2,30.8,0001.6,0026.32,0018.38,0017.08
2023-08-17 13:10:00,SystemResetWarning,0836.5,4.98,000.00,028.5,026.2,000.0,036.8,030.1,30.8,0001.7,0025.85,0018.47,0017.12
2023-08-17 13:11:00,SystemResetWarning,0836.5,5.00,000.00,028.4,024.4,000.0,036.7,029.8,30.8,0001.7,0025.63,0018.58,0017.18
2023-08-17 13:12:00,SystemResetWarning,0836.5,5.01,000.00,028.3,023.8,000.0,036.6,029.5,31.0,0002.0,0026.37,0018.66,0017.21
2023-08-17 13:13:00,SystemResetWarning,0836.5,5.01,000.00,028.2,024.0,000.0,036.6,029.3,31.3,0002.2,0026.39,0018.70,0017.23
2023-08-17 13:14:00,SystemResetWarning,0836.5,5.00,000.00,028.1,024.4,000.0,036.6,029.4,31.5,0002.3,0026.17,0018.68,0017.25
2023-08-17 13:15:00,SystemResetWarning,0836.5,5.00,000.00,028.1,024.8,000.0,036.7,029.5,31.7,0002.5,0026.57,0018.67,0017.27
2023-08-17 13:16:00,SystemResetWarning,0836.5,5.00,000.00,028.1,025.2,000.0,036.7,029.6,31.6,0002.7,0027.55,0018.63,0017.26
2023-08-17 13:17:00,SystemResetWarning,0836.5,5.00,000.00,028.1,025.6,000.0,036.7,029.6,31.4,0002.8,0026.96,0018.61,0017.22
2023-08-17 13:18:00,SystemResetWarning,0836.5,5.00,000.00,028.1,025.9,000.0,036.7,029.7,31.3,0003.0,0027.79,0018.60,0017.16
2023-08-17 13:19:00,SystemResetWarning,0836.6,5.00,000.00,028.1,026.2,000.0,036.7,029.8,31.3,0002.8,0027.92,0018.62,0017.14
2023-08-17 13:20:00,SystemResetWarning,0836.6,5.00,000.00,028.1,026.4,000.0,036.7,029.8,31.3,0002.6,0028.04,0018.66,0017.14
2023-08-17 13:21:00,SystemResetWarning,0836.7,5.00,000.00,028.1,026.6,000.0,036.7,029.9,31.3,0002.6,0028.67,0018.62,0017.11
2023-08-17 13:22:00,SystemResetWarning,0836.6,5.00,000.00,028.2,026.7,000.0,036.7,029.9,31.2,0002.6,0029.25,0018.55,0017.07
2023-08-17 13:23:00,SystemResetWarning,0836.6,5.00,000.00,028.2,026.9,000.0,036.7,029.9,31.3,0002.4,0029.81,0018.63,0017.08
2023-08-17 13:24:00,SystemResetWarning,0836.6,5.00,000.00,028.2,027.0,000.0,036.7,030.0,31.3,0001.9,0030.03,0018.70,0017.12
2023-08-17 13:25:00,SystemResetWarning,0836.6,4.99,000.00,028.3,027.1,000.0,036.7,030.0,31.2,0001.9,0030.86,0018.74,0017.13
2023-08-17 13:26:00,SystemResetWarning,0836.6,4.99,000.00,028.3,027.2,000.0,036.8,030.1,31.1,0001.9,0030.69,0018.75,0017.10
2023-08-17 13:27:00,SystemResetWarning,0836.6,5.00,000.00,028.4,027.2,000.0,036.8,030.1,31.1,0001.9,0029.65,0018.69,0017.05
2023-08-17 13:28:00,SystemResetWarning,0836.6,5.00,000.00,028.4,027.3,000.0,036.8,030.2,30.8,0001.8,0028.95,0018.63,0017.01
2023-08-17 13:29:00,SystemResetWarning,0836.6,5.00,000.00,028.4,027.3,000.0,036.8,030.2,30.6,0002.1,0028.20,0018.59,0016.99
2023-08-17 13:30:00,SystemResetWarning,0836.6,5.00,000.00,028.4,025.9,000.0,036.7,030.0,30.4,0002.1,0028.42,0018.53,0016.96
2023-08-17 13:31:00,SystemResetWarning,0836.7,5.01,000.00,028.3,024.3,000.0,036.6,029.7,30.5,0002.5,0028.33,0018.49,0016.92
2023-08-17 13:32:00,SystemResetWarning,0836.6,5.01,000.00,028.3,024.1,000.0,036.6,029.6,30.8,0002.4,0027.89,0018.47,0016.87
2023-08-17 13:33:00,SystemResetWarning,0836.6,5.01,000.00,028.2,024.4,000.0,036.6,029.5,31.0,0002.3,0027.20,0018.42,0016.82
2023-08-17 13:34:00,SystemResetWarning,0836.6,4.99,000.00,028.1,024.8,000.0,036.6,029.5,31.5,0002.4,0026.50,0018.24,0016.73
2023-08-17 13:35:00,SystemResetWarning,0836.6,5.00,000.00,028.1,025.2,000.0,036.6,029.6,31.6,0002.6,0025.89,0018.05,0016.64
2023-08-17 13:36:00,SystemResetWarning,0836.6,5.00,000.00,028.1,025.5,000.0,036.6,029.7,31.7,0002.8,0025.39,0017.92,0016.53
2023-08-17 13:37:00,SystemResetWarning,0836.6,5.00,000.00,028.1,025.9,000.0,036.7,029.7,31.8,0002.8,0025.76,0017.81,0016.45
2023-08-17 13:38:00,SystemResetWarning,0836.7,4.99,000.00,028.1,026.1,000.0,036.7,029.8,32.0,0002.8,0026.35,0017.75,0016.38
2023-08-17 13:39:00,SystemResetWarning,0836.6,5.00,000.00,028.2,026.4,000.0,036.7,029.9,32.4,0003.0,0026.35,0017.70,0016.33
2023-08-17 13:40:00,SystemResetWarning,0836.6,5.00,000.00,028.2,026.6,000.0,036.7,029.9,32.5,0002.5,0026.75,0017.69,0016.31
2023-08-17 13:41:00,SystemResetWarning,0836.6,5.01,000.00,028.2,026.8,000.0,036.7,030.0,32.3,0002.3,0026.40,0017.66,0016.31
2023-08-17 13:42:00,SystemResetWarning,0836.6,5.00,000.00,028.2,026.9,000.0,036.7,030.0,32.4,0002.0,0026.52,0017.54,0016.27
2023-08-17 13:43:00,SystemResetWarning,0836.6,5.00,000.00,028.3,027.0,000.0,036.7,030.1,32.5,0001.9,0026.82,0017.44,0016.24
2023-08-17 13:44:00,SystemResetWarning,0836.6,5.00,000.00,028.3,027.2,000.0,036.8,030.1,32.3,0001.9,0026.61,0017.36,0016.20
2023-08-17 13:45:00,SystemResetWarning,0836.7,5.00,000.00,028.4,027.2,000.0,036.8,030.1,32.5,0001.7,0026.61,0017.31,0016.15
2023-08-17 13:46:00,SystemResetWarning,0836.7,5.00,000.00,028.4,027.3,000.0,036.8,030.2,32.6,0001.7,0028.05,0017.27,0016.10
2023-08-17 13:47:00,SystemResetWarning,0836.7,4.99,000.00,028.4,027.0,000.0,036.8,030.2,32.7,0001.4,0029.29,0017.25,0016.05
2023-08-17 13:48:00,SystemResetWarning,0836.7,5.00,000.00,028.4,025.3,000.0,036.7,029.9,32.7,0001.3,0028.83,0017.23,0016.02
2023-08-17 13:49:00,SystemResetWarning,0836.6,5.00,000.00,028.3,024.3,000.0,036.6,029.7,32.7,0001.2,0028.01,0017.30,0016.02
2023-08-17 13:50:00,SystemResetWarning,0836.6,5.01,000.00,028.2,024.5,000.0,036.6,029.6,33.2,0001.1,0028.00,0017.25,0015.97
2023-08-17 13:51:00,SystemResetWarning,0836.6,5.00,000.00,028.2,024.8,000.0,036.6,029.6,33.7,0001.5,0028.79,0017.12,0015.88
2023-08-17 13:52:00,SystemResetWarning,0836.6,5.00,000.00,028.1,025.2,000.0,036.6,029.6,33.7,0001.9,0029.20,0017.03,0015.74
2023-08-17 13:53:00,SystemResetWarning,0836.6,5.00,000.00,028.1,025.5,000.0,036.6,029.7,33.8,0002.1,0028.76,0016.92,0015.61
2023-08-17 13:54:00,SystemResetWarning,0836.6,5.01,000.00,028.1,025.9,000.0,036.7,029.8,33.9,0001.9,0029.20,0016.79,0015.49
2023-08-17 13:55:00,SystemResetWarning,0836.6,5.00,000.00,028.2,026.2,000.0,036.7,029.8,33.9,0002.4,0028.77,0016.64,0015.34
2023-08-17 13:56:00,SystemResetWarning,0836.7,5.00,000.00,028.2,026.4,000.0,036.7,029.9,33.9,0002.6,0028.40,0016.52,0015.24
2023-08-17 13:57:00,SystemResetWarning,0836.7,5.00,000.00,028.2,026.6,000.0,036.7,030.0,33.9,0002.8,0026.82,0016.42,0015.11
2023-08-17 13:58:00,SystemResetWarning,0836.6,5.00,000.00,028.3,026.8,000.0,036.7,030.0,34.0,0002.9,0025.48,0016.36,0015.06
2023-08-17 13:59:00,SystemResetWarning,0836.7,5.00,000.00,028.3,027.0,000.0,036.7,030.1,33.8,0002.9,0025.08,0016.28,0014.99
